Location: Bazinghen
(50.8246°N, 1.6616°E)
Time: 18:47:29
(UTC+00:00)

STARLINK-1224 - Pass Details

Date: 09 April 2020
Orbit: 549 x 551 km, 53.0° (Epoch: 25 May)

Event Time Altitude Azimuth Distance (km) Brightness Sun altitude
Rises 20:37:33 0° 291° (WNW) 2,731 8.6 -17.5°
Reaches altitude 10° 20:39:50 10° 285° (WNW) 1,835 7.3 -17.8°
Maximum altitude 20:43:51 48° 212° (SSW) 730 4.1 -18.2°
Enters shadow 20:44:56 38° 167° (SSE) 860 4.2 -18.4°
